RH
16 14 25 28 29 34 32 24 17 15 12 8 10 11 10 16 27 35 53 51 37 46 55 55 51 49 52 54 57 57 57 58 57 54 51 52 55 62 70 75 77 78 77 78 74 79 81 77 77
12 24 32 38 35 31 28 22 18 14 11 10 12 9 10 29 34 63 55 49 28 34 45 50 49 47 51 52 57 59 60 60 61 59 55 56 60 65 70 75 78 81 81 82 77 78 74 72 76
15 32 37 44 42 33 26 17 13 11 10 8 11 8 8 19 46 53 43 41 32 35 36 42 44 49 48 50 55 59 62 62 64 62 59 60 64 68 71 75 79 82 83 88 94 81 68 73 78
23 33 40 44 40 28 20 13 10 11 9 9 8 8 14 28 39 36 40 39 32 32 30 35 38 51 51 47 49 57 62 63 65 65 62 63 67 72 74 77 81 84 87 90 91 72 73 75 77
25 42 49 48 42 28 17 14 13 13 12 12 10 9 14 31 32 36 37 32 27 32 32 37 43 46 45 48 51 54 63 63 65 67 66 66 70 74 75 76 78 85 85 87 82 72 74 76 79
29 36 48 48 33 23 19 16 13 13 11 11 10 10 25 36 52 54 43 32 22 24 34 38 48 40 46 54 54 52 60 68 67 70 72 71 72 74 74 73 78 86 84 81 81 78 77 75 81
33 40 43 37 32 26 20 16 16 16 14 12 10 12 25 33 47 48 38 24 25 27 34 40 46 44 46 51 56 57 54 68 69 73 77 76 74 75 76 77 77 84 78 80 80 80 77 76 82
39 45 44 38 34 34 20 17 14 17 16 12 9 12 24 38 42 44 40 38 34 40 34 36 37 44 55 61 60 60 56 68 73 82 82 82 78 78 80 80 78 78 77 78 72 77 72 75 80
31 52 52 47 40 33 24 23 18 13 14 14 11 10 16 36 40 56 74 82 73 65 49 36 36 43 54 61 64 68 72 74 88 90 92 94 85 83 84 82 79 76 79 78 75 76 72 73 74
32 50 50 37 32 31 26 26 23 18 19 16 16 17 34 39 43 61 77 86 91 79 68 56 45 39 52 66 72 77 83 81 90 95 95 98 88 86 86 82 80 80 79 81 77 71 68 74 69
31 37 33 30 26 25 26 27 22 22 21 17 19 19 15 25 43 55 66 78 76 63 71 62 56 43 48 68 81 86 87 88 99 97 98 99 93 90 89 84 84 85 84 86 80 75 79 70 66
38 30 27 24 22 23 22 19 21 22 22 17 18 16 15 14 26 44 60 68 67 73 57 63 62 56 45 50 73 85 95 91 98 100 98 98 93 92 90 86 82 86 87 86 82 85 69 67 66
20 18 18 19 20 21 19 21 21 19 17 17 16 15 18 21 20 15 24 52 63 71 58 58 68 65 60 54 61 73 85 97 84 94 98 94 85 87 85 85 83 85 86 84 85 81 74 74 68
22 21 21 18 16 15 17 17 18 16 17 17 14 15 17 18 20 17 14 15 46 66 65 58 71 68 70 64 67 72 69 74 82 79 86 88 83 85 85 82 83 85 85 83 82 82 70 75 78
21 26 25 24 24 20 16 20 18 14 15 16 16 16 15 17 16 20 14 14 12 40 59 69 66 70 73 69 71 83 75 67 76 78 81 85 86 84 81 83 84 86 86 84 86 78 71 71 77
24 29 39 25 24 22 19 28 18 15 17 18 17 14 13 14 18 14 13 13 12 13 33 61 71 79 77 77 72 83 80 72 73 79 82 84 89 85 82 84 87 87 89 91 90 82 78 79 83
33 31 32 30 24 26 25 28 20 16 18 17 16 16 15 14 15 14 14 13 13 12 13 37 62 76 79 83 79 85 82 77 78 78 81 85 89 87 85 85 88 88 94 100 99 99 91 97 92
33 46 41 40 24 27 30 28 22 18 17 15 15 14 15 17 16 14 13 13 13 13 14 20 44 49 71 89 86 89 83 82 82 82 83 84 90 87 88 90 91 92 100 100 99 100 100 100 95
26 24 25 21 18 22 21 19 19 18 16 16 14 17 19 19 16 15 12 14 13 14 15 18 49 63 89 100 98 95 87 88 88 88 88 87 90 90 92 93 97 99 100 97 95 99 100 100 98
30 30 30 24 20 21 20 20 17 18 16 15 16 16 17 17 13 12 11 9 12 13 15 20 42 61 86 95 93 83 88 96 90 90 92 82 86 90 89 91 98 100 100 100 99 100 99 100 100
31 36 35 33 25 22 22 24 20 18 17 15 14 13 12 12 11 12 12 12 12 13 13 19 34 71 79 91 99 94 97 100 100 87 82 86 89 86 85 89 93 97 96 100 100 98 100 99 100
33 25 27 26 26 39 30 40 22 22 21 17 15 14 12 11 10 26 53 64 60 44 26 20 44 76 88 97 99 96 94 96 95 98 88 78 81 76 91 96 94 91 91 99 100 100 100 100 98
21 30 30 27 32 64 38 48 29 24 23 20 17 43 43 52 71 77 77 74 72 72 64 42 57 87 90 100 98 99 96 94 95 98 100 94 81 89 90 88 93 92 97 99 99 100 100 100 97
32 37 34 36 68 77 54 57 39 30 26 22 67 75 78 78 78 76 77 79 83 87 86 63 90 95 99 99 98 95 94 96 98 100 100 100 97 93 91 94 93 96 99 100 100 100 100 100 99
41 47 67 87 86 71 40 46 36 40 32 26 72 85 82 85 86 84 83 84 85 92 96 65 100 97 100 99 98 94 90 88 94 100 100 99 99 100 100 98 100 100 100 100 100 100 100 100 100
44 70 70 81 81 65 41 53 55 80 74 77 79 90 80 81 82 83 81 82 86 90 96 100 93 97 100 99 99 96 92 93 93 95 88 83 99 92 88 93 92 95 96 100 100 100 100 100 100
64 75 55 72 59 70 73 50 61 70 81 81 85 83 86 77 78 76 76 81 87 90 94 99 99 96 100 99 100 98 90 92 92 85 80 88 90 90 97 98 99 98 97 100 100 100 100 100 99
69 49 82 89 84 80 73 75 100 98 94 93 93 91 82 76 75 74 78 78 85 89 92 94 96 100 94 99 87 85 88 90 89 88 92 90 92 90 97 100 100 100 96 96 100 100 100 100 99
82 92 75 74 88 75 88 98 100 100 98 98 92 81 78 76 77 75 75 80 85 87 88 92 93 100 100 100 95 91 93 91 88 87 91 90 93 97 99 98 99 100 100 100 100 100 100 100 100
63 84 74 88 63 77 94 98 100 100 100 91 79 75 72 71 75 77 75 80 85 87 88 91 93 99 100 100 96 91 89 82 85 90 92 89 93 96 94 96 98 100 100 100 100 100 100 100 100
Wind_Speed
8 5 1 3 3 5 3 8 4 12 8 4 8 4 3 3 4 4 5 20 30 35 32 30 28 27 27 25 24 22 20 18 17 17 17 17 18 19 20 21 22 22 22 20 19 16 16 16 17
5 2 2 2 4 2 6 6 16 12 11 10 10 4 2 1 1 6 14 25 34 35 31 28 26 26 26 25 24 22 20 19 17 17 17 17 18 19 20 21 21 20 20 18 18 16 15 16 18
5 1 3 4 4 7 7 8 19 4 8 8 7 3 2 5 3 11 11 36 37 35 31 28 25 26 25 25 24 22 21 19 18 18 17 17 18 19 19 20 19 18 18 17 16 16 16 18 20
6 4 3 2 9 9 5 6 2 9 10 9 5 5 3 1 19 16 34 35 36 34 31 29 26 25 24 23 24 22 21 20 19 18 18 18 18 18 19 19 20 18 18 17 16 17 19 20 22
2 3 3 4 8 7 4 8 11 9 9 11 7 6 1 4 15 35 35 35 35 34 31 29 27 24 22 22 23 23 22 21 20 19 19 19 19 19 19 20 20 18 18 18 16 18 20 21 22
2 2 2 8 12 5 5 13 8 8 12 12 5 5 6 13 32 34 34 34 35 35 31 29 27 24 23 22 22 23 22 22 21 20 20 19 19 19 19 19 19 19 18 18 17 19 21 21 22
5 3 5 3 3 5 7 5 5 10 5 9 5 8 1 2 23 36 32 30 31 30 31 29 26 24 23 22 22 22 22 22 22 22 21 20 20 20 20 20 20 20 18 20 19 20 22 21 22
4 3 2 4 4 8 8 11 3 6 9 9 2 4 4 5 25 33 34 35 35 32 30 29 26 25 25 23 22 22 22 23 21 21 21 21 21 21 20 20 20 18 18 20 17 18 18 19 22
4 2 7 7 9 6 10 14 13 3 5 5 9 3 6 21 25 27 23 24 30 31 31 29 27 26 25 24 24 22 22 23 22 21 20 20 22 22 22 21 21 19 18 17 18 21 21 21 22
5 6 8 7 6 12 10 12 15 6 9 6 6 17 7 19 22 19 18 19 22 28 28 29 27 27 25 24 25 25 24 24 24 23 22 23 23 23 23 21 21 19 19 20 22 23 23 23 25
4 13 9 8 9 10 8 11 8 15 11 3 6 5 8 10 9 11 18 26 33 35 31 29 27 26 27 26 26 26 27 26 23 25 25 25 24 24 23 22 22 23 22 24 25 25 26 26 26
9 15 8 8 10 9 15 16 16 13 11 8 8 6 5 5 9 9 12 23 28 31 33 32 30 28 28 28 28 29 29 29 27 26 28 28 27 26 26 25 26 27 27 26 28 27 27 25 26
9 14 12 14 16 19 20 22 19 24 12 10 8 7 8 9 10 18 25 19 31 32 36 35 35 32 31 31 30 31 32 31 30 29 31 31 31 30 28 28 28 30 30 30 29 29 24 27 26
7 10 12 11 14 14 14 18 6 17 9 10 9 10 9 11 10 14 16 25 24 33 38 39 38 35 33 34 35 34 33 33 31 31 32 33 33 33 32 31 31 32 32 31 30 30 32 27 23
9 12 15 17 7 9 2 17 19 7 9 15 11 9 11 11 15 11 23 24 28 35 41 41 41 39 37 37 37 37 35 32 33 34 34 34 35 36 34 33 33 34 33 32 32 34 33 28 24
7 6 5 3 3 6 9 22 25 7 8 12 13 17 17 18 13 24 30 30 32 32 37 42 41 42 42 40 40 39 37 34 34 33 35 35 35 37 35 34 34 33 34 35 36 37 35 30 26
2 13 11 23 2 6 8 14 19 8 11 17 17 17 18 20 18 22 28 31 33 38 37 38 42 41 44 41 41 39 39 36 36 34 34 37 36 36 37 35 33 32 33 36 34 33 36 31 28
1 6 7 14 12 8 18 20 21 21 14 17 15 17 16 16 17 25 29 35 33 36 38 38 43 44 43 41 40 37 37 35 36 36 36 37 37 36 36 34 33 33 33 32 32 31 31 28 29
13 16 19 24 25 19 21 24 20 21 10 14 16 13 11 12 14 21 27 27 31 35 33 35 38 41 37 32 33 32 35 38 32 35 36 35 36 36 36 34 33 33 33 33 32 30 28 25 27
15 18 23 21 22 20 22 25 23 14 13 13 11 10 10 8 10 10 15 24 23 29 37 32 38 41 41 38 39 30 34 33 36 34 28 34 35 34 34 33 33 35 33 30 31 31 22 23 27
13 19 20 22 24 22 16 22 18 18 7 11 14 13 11 14 15 12 9 14 20 23 29 31 39 41 44 39 31 24 28 21 25 31 35 34 33 31 33 34 33 33 34 32 34 35 28 21 24
16 13 13 18 18 16 6 18 22 10 14 17 17 15 19 17 17 2 6 6 14 15 13 28 36 40 40 36 34 35 32 26 27 30 32 37 36 34 32 31 33 32 33 32 33 35 33 27 22
20 10 15 19 19 8 20 12 18 8 16 14 11 14 18 8 9 7 7 7 13 18 16 15 30 30 38 41 37 35 28 28 24 27 29 34 34 35 36 36 34 33 34 34 34 34 34 32 27
11 12 15 14 2 8 15 15 25 15 16 16 6 16 17 12 11 12 12 19 24 26 22 12 27 31 33 39 36 37 34 29 26 27 27 28 31 33 35 35 35 37 37 35 35 35 36 35 31
2 4 7 4 5 12 12 12 15 13 17 12 12 19 16 12 15 17 20 18 24 30 32 7 25 27 31 34 35 38 36 36 34 30 28 27 25 28 31 34 34 34 34 35 35 35 35 36 33
11 5 5 8 4 5 9 5 2 12 15 16 15 16 17 18 17 17 18 16 24 29 33 30 7 26 31 31 31 31 32 32 32 35 32 29 28 32 32 33 33 35 35 35 33 33 34 35 35
2 9 15 10 8 7 5 5 5 12 19 20 19 18 17 16 17 22 19 22 26 27 28 28 23 6 19 24 24 27 32 31 31 31 30 31 32 29 27 29 31 32 33 35 35 34 33 35 37
10 5 3 1 4 7 7 2 3 13 15 13 17 18 16 17 21 17 17 22 26 27 27 28 30 26 6 21 29 30 31 28 27 25 27 26 27 25 23 24 28 32 34 35 35 34 34 35 39
3 1 4 3 3 4 3 3 5 6 14 14 17 17 17 18 16 15 17 26 27 29 31 31 32 31 28 9 20 23 25 24 23 23 20 20 19 18 20 22 24 27 29 33 33 33 36 39 35
13 6 4 3 4 6 2 4 6 14 15 14 16 18 15 14 15 16 17 24 28 30 33 31 32 32 31 18 13 23 26 25 22 20 17 14 13 13 15 17 20 22 25 28 32 31 30 34 35
Wind_Direction
277 240 256 56 63 63 239 249 264 282 319 238 283 266 210 280 165 203 156 163 161 160 161 163 162 158 156 153 154 157 159 158 155 154 150 146 145 145 145 146 147 150 152 150 145 148 148 146 142
272 200 32 86 113 128 249 235 255 243 237 312 284 257 345 324 50 124 133 165 160 159 161 165 165 161 158 155 158 161 164 163 162 161 158 154 153 151 150 149 150 151 155 153 150 150 150 145 144
172 180 88 150 170 201 217 213 245 235 284 306 274 224 202 174 87 147 183 161 159 159 162 166 168 166 162 159 160 165 169 168 169 169 167 162 161 158 156 156 155 155 157 154 147 147 147 143 139
151 40 6 184 229 262 215 267 267 316 305 272 272 301 5 309 159 173 160 160 159 159 165 169 173 170 166 164 161 167 174 173 175 175 173 170 169 167 164 163 162 160 157 157 155 151 148 144 142
106 83 225 232 247 266 285 272 275 286 289 283 273 248 146 285 170 154 159 163 163 164 169 173 175 172 171 171 166 167 179 178 178 180 179 176 175 174 173 173 170 167 164 160 164 156 152 148 148
11 96 177 231 235 253 264 249 283 283 283 277 257 212 200 157 147 157 160 167 170 166 172 176 177 174 175 177 174 170 178 182 180 182 183 180 180 180 181 180 177 172 169 163 168 160 156 153 152
164 144 233 233 259 264 247 241 219 272 293 298 269 176 181 220 162 160 160 166 168 170 173 177 177 177 177 178 179 178 176 183 184 183 184 182 183 184 187 184 182 178 171 171 169 166 161 158 155
153 121 266 241 241 271 250 286 246 311 292 309 212 259 192 228 171 165 165 167 171 173 176 176 178 180 180 180 182 184 180 183 181 180 184 184 185 187 191 189 187 187 179 178 170 165 166 160 161
145 220 231 233 240 273 306 294 293 315 347 324 318 253 183 165 165 152 152 155 168 174 177 179 182 185 186 184 183 187 185 182 179 179 181 187 186 187 193 192 190 191 190 176 176 171 169 169 166
172 223 230 230 238 263 273 278 291 329 322 315 1 353 357 159 152 148 160 168 168 175 182 183 187 189 189 189 187 187 185 183 183 182 183 188 186 189 193 192 192 192 190 184 185 182 173 175 169
223 245 254 258 269 278 273 282 268 291 275 252 266 310 321 319 310 175 175 173 181 186 185 189 191 191 193 193 192 191 192 187 186 188 185 188 185 189 192 191 189 192 193 188 185 179 176 182 175
265 262 259 260 258 263 267 267 268 250 255 226 224 227 176 286 281 274 197 186 188 188 196 198 196 195 199 202 200 199 198 197 185 191 188 190 186 188 191 191 190 193 194 189 184 176 179 183 185
244 263 268 263 255 256 261 259 258 264 250 232 241 231 256 200 225 264 253 234 196 192 202 207 202 199 201 203 202 207 206 203 200 193 190 191 190 191 191 192 194 194 195 196 192 189 197 186 187
279 274 269 260 248 249 252 269 249 260 268 245 239 253 240 253 218 216 241 249 231 203 203 210 207 208 203 207 205 204 208 210 207 200 197 195 195 196 193 192 197 197 199 200 199 192 188 191 197
291 308 305 273 253 263 14 284 251 258 254 275 266 254 269 238 253 232 248 227 241 225 212 209 214 210 207 209 212 207 206 208 209 206 202 196 199 200 198 195 197 200 200 200 196 191 190 194 200
342 304 284 306 273 291 172 262 271 262 249 259 265 280 273 267 233 249 253 256 259 240 216 216 213 207 210 208 213 211 209 206 205 206 204 201 202 202 201 198 198 201 201 200 197 196 197 201 209
221 263 274 295 137 288 288 278 282 289 260 262 264 268 267 268 268 257 250 245 246 250 231 209 210 211 210 207 209 209 209 206 207 204 206 204 206 204 203 203 203 203 203 201 201 198 199 202 210
331 258 280 265 297 286 277 271 280 277 259 254 253 258 259 255 256 262 268 260 240 239 232 217 204 210 211 200 203 202 206 206 210 207 207 205 207 205 204 203 204 203 200 198 204 201 204 206 208
265 266 265 272 281 288 281 286 281 277 270 259 258 259 257 248 249 253 268 268 240 240 230 212 200 205 193 185 187 196 197 196 197 205 207 205 207 206 204 204 204 203 200 205 209 208 205 206 219
249 258 264 274 276 271 275 273 274 254 256 255 248 256 255 251 254 249 251 262 246 240 235 214 203 201 194 192 196 196 196 197 200 199 198 209 211 208 209 210 207 205 201 205 208 199 199 205 202
256 253 266 267 274 269 269 274 275 255 240 270 266 254 248 240 250 259 256 249 258 238 241 218 206 197 196 194 184 181 179 185 187 201 207 211 210 210 212 212 212 209 211 205 204 203 195 198 205
279 285 298 302 287 283 304 285 268 269 283 276 282 288 277 263 259 334 14 16 7 352 299 230 202 192 190 184 180 179 176 182 198 196 205 210 216 219 217 215 214 216 216 210 208 207 204 199 191
277 288 294 289 289 296 279 281 273 220 253 263 277 347 316 14 79 58 27 349 8 352 352 218 199 191 182 183 181 176 179 189 190 191 192 205 209 215 217 220 222 221 218 214 210 208 205 203 193
282 281 287 294 264 265 267 253 266 259 270 268 86 30 1 18 44 36 19 20 11 4 11 209 189 184 184 179 180 181 182 179 177 185 189 195 203 211 217 223 224 225 221 218 218 211 210 209 199
266 271 275 288 224 257 251 242 252 329 298 275 74 39 348 334 37 24 24 16 12 7 0 329 181 184 187 183 183 187 187 188 186 186 187 191 198 206 212 224 223 218 214 218 221 213 209 204 198
271 232 229 250 227 298 223 239 87 28 46 73 59 61 11 356 29 26 20 14 16 7 4 5 233 187 183 185 185 185 188 187 190 192 194 202 200 212 219 223 227 228 227 222 215 213 209 206 206
222 218 228 245 254 287 241 245 101 36 65 51 54 41 26 349 24 26 11 14 13 6 1 359 7 19 188 183 179 181 195 194 194 201 205 203 211 214 219 223 224 228 227 224 219 217 218 213 210
218 192 75 61 202 238 257 198 56 357 64 55 54 40 16 4 27 16 14 9 6 5 1 7 9 4 344 187 194 194 198 198 201 202 203 205 209 209 217 219 222 228 229 229 225 224 217 209 208
302 170 243 141 244 249 296 76 2 352 38 40 39 42 20 13 14 16 13 9 4 3 5 8 7 4 8 210 197 190 186 190 193 190 187 190 196 203 214 221 229 232 231 229 226 224 219 209 209
228 248 229 170 222 215 153 61 354 37 33 29 32 28 17 14 14 17 17 11 9 3 0 2 3 359 357 4 154 164 162 158 160 159 166 173 192 211 229 233 236 241 239 235 232 230 207 204 199